Погода в Президенти-Пруденти

Бразилия     22°08′07″S   51°23′49″W
темп.,
°C
ветер,
м/с
пор.,
м/с
влажн.,
%
обл.,
%
осадки,
мм/ч
давл.,
гПа
погр.,
м
26 февраля, пт
пт2600:00+22юв48910 0.0 1010199
03:00+20вюв511940 0.0 1009331
06:00+19вюв511930 0.0 1009377
09:00+22в69830 0.0 1011516
12:00+27в45689 0.0 1011972
15:00+28вюв346849 0.3 10081091
18:00+27вюв357652 0.1 1007627
21:00+22юв4128926 0.8 1010319
27 февраля, сб
сб2700:00+21вюв716860 0.0 1011603
03:00+20вюв715870 0.0 1010527
06:00+19вюв512880 0.0 1011464
09:00+22вюв68830 0.0 1013458
12:00+28в456812 0.2 10121047
15:00+28вюв346930 2.8 10091092
18:00+26вюв368211 4.1 1008356
21:00+22юв49906 4.8 1009183
28 февраля, вс
вс2800:00+21вюв715910 0.0 1011522
03:00+20вюв713945 0.0 1009470
06:00+20в5119636 0.0 1010410
09:00+23всв698650 0.0 1012745
12:00+24св4784100 0.2 1011695
15:00+28св456781 0.3 10081154
18:00+26всв368422 2.2 1007626
21:00+22св499012 6.4 1009209
1 марта, пн
пн100:00+21всв512917 0.2 1010304
03:00+20всв4119317 0.2 1009305
06:00+20всв399540 0.0 1010268
09:00+24ссв6108120 0.0 1011717
12:00+27ссв69675 0.3 10101137
15:00+28ссв68654 1.7 10081374
18:00+26св37828 2.9 1007508
21:00+23св498848 3.8 1009209
2 марта, вт
вт200:00+22св499090 0.3 1010227
03:00+21ссв379395 0.4 1010207
06:00+21ссв3891100 0.0 1011287
09:00+24ссв488199 0.0 1013552
12:00+28с686918 0.9 10121315
15:00+29с566511 3.8 10091328
18:00+27ссв357520 0.1 1008308
21:00+23св338750 1.9 101165